Location: Newark
(48.7875°N, 2.3928°E)
Time: 00:20:57
(UTC+00:00)

N. Korean satellite - Pass Details

Date: 30 October 2019
Orbit: 456 x 506 km, 97.2° (Epoch: 20 November)

Event Time Altitude Azimuth Distance (km) Brightness Sun altitude
Rises 17:25:51 0° 189° (S) 2,482 10.4 -9.0°
Reaches altitude 10° 17:28:02 10° 201° (SSW) 1,619 9.7 -9.4°
Maximum altitude 17:31:08 30° 264° (W) 868 8.8 -9.9°
Drops below altitude 10° 17:34:19 10° 328° (NNW) 1,655 9.6 -10.4°
Sets 17:36:35 0° 339° (NNW) 2,550 10.4 -10.8°
